Waarnemingen

Advertentie
Mijn weer
Haparanda A, Zweden (2197): temperatuur & dauwpunt: 17.07.2018 02:00:00 - 23.07.2018 02:00:00 (CEST)Haparanda A, Zweden (2197): windsnelheid & windstoten: 17.07.2018 02:00:00 - 23.07.2018 02:00:00 (CEST)Haparanda A, Zweden (2197): windrichting: 17.07.2018 02:00:00 - 23.07.2018 02:00:00 (CEST)Haparanda A, Zweden (2197): luchtdruk: 17.07.2018 02:00:00 - 23.07.2018 02:00:00 (CEST)Haparanda A, Zweden (2197): zicht: 17.07.2018 02:00:00 - 23.07.2018 02:00:00 (CEST)Haparanda A, Zweden (2197): neerslag: 17.07.2018 02:00:00 - 23.07.2018 02:00:00 (CEST)
Datum & Tijd tt [°C] td [°C] ff [km/u] ff [kn] fx [km/u] fx [kn] dd ppp [hPa] vv [km] rr [mm]
23.07.2018 02:00:00 19,5 19,2 5 3 16 9 Z 1004,8 1,9 0,0
23.07.2018 01:00:00 19,7 19,4 8 5 24 13 ZZW 1004,8 12 0,0
23.07.2018 00:00:00 19,6 19,4 10 6 33 18 ZZW 1004,5 13 0,4
22.07.2018 23:00:00 19,0 18,8 10 5 44 24 WZW 1004,4 0,6 15,1
22.07.2018 22:00:00 20,9 19,0 10 5 24 13 ZZW 1004,3 50 0,0
22.07.2018 21:00:00 20,8 18,4 11 6 26 14 ZZW 1003,9 50 0,0
22.07.2018 20:00:00 21,3 18,3 12 7 28 15 ZZW 1003,7 50 0,0
22.07.2018 19:00:00 21,7 19,3 10 5 31 17 ZW 1003,4 50 0,0
22.07.2018 18:00:00 22,3 18,9 12 7 29 16 ZW 1003,1 46 0,0
22.07.2018 17:00:00 23,4 19,1 9 5 22 12 ZZW 1002,6 46 0,0
22.07.2018 16:00:00 23,1 19,5 10 5 19 11 Z 1002,5 39 0,0
22.07.2018 15:00:00 23,0 20,0 8 4 23 12 Z 1002,6 36 0,0
22.07.2018 14:00:00 23,8 20,1 9 5 21 12 Z 1002,4 42 0,0
22.07.2018 13:00:00 24,6 19,0 5 3 14 8 Z 1001,8 50 0,0
22.07.2018 12:00:00 23,0 19,2 9 5 22 12 ZZW 1002,7 48 0,0
22.07.2018 11:00:00 24,0 19,7 7 4 16 9 Z 1002,4 37 0,0
22.07.2018 10:00:00 23,6 21,5 5 3 20 11 ZW 1002,3 26 0,1
22.07.2018 09:00:00 22,0 21,0 10 5 21 12 Z 1002,3 10 0,1
22.07.2018 08:00:00 21,2 20,8 5 3 12 6 ONO 1002,3 8 0,0
22.07.2018 07:00:00 19,9 19,7 4 2 13 7 NO 1002,5 3,6 3,8
22.07.2018 06:00:00 20,7 20,7 3 2 16 8 Z 1002,6 3,9 0,4
22.07.2018 05:00:00 19,9 19,9 5 3 10 6 ONO 1002,8 3,4 0,0
22.07.2018 04:00:00 19,7 19,7 4 2 11 6 O 1003,2 2,4 0,2
22.07.2018 03:00:00 19,5 19,5 4 2 13 7 NO 1003,4 1,9 6,6
22.07.2018 02:00:00 19,1 19,1 6 3 16 9 ONO 1003,7 3,2 0,0
22.07.2018 01:00:00 19,0 19,0 8 4 16 9 NO 1004,4 2,9 0,0
22.07.2018 00:00:00 19,2 19,2 6 3 14 8 NO 1004,7 1,8 0,2
21.07.2018 23:00:00 19,3 19,1 5 3 17 9 ONO 1004,9 2,8 10,2
21.07.2018 22:00:00 19,6 19,3 13 7 31 17 ZO 1005,5 1,0 9,7
21.07.2018 21:00:00 21,6 18,0 6 3 12 7 NNO 1005,2 40 0,0
21.07.2018 20:00:00 23,1 18,6 6 4 15 8 ONO 1005,3 37 0,0
21.07.2018 19:00:00 24,0 17,7 3 2 13 7 OZO 1005,8 45 0,0
21.07.2018 18:00:00 24,6 18,1 6 3 19 11 ZO 1005,9 40 0,0
21.07.2018 17:00:00 25,1 18,3 8 5 20 11 ZZO 1006,4 24 0,0
21.07.2018 16:00:00 25,9 18,8 11 6 28 15 ZZO 1006,7 36 0,0
21.07.2018 15:00:00 23,1 17,8 9 5 27 15 O 1007,3 29 0,0
21.07.2018 14:00:00 26,1 16,9 8 5 17 9 ZO 1007,2 37 0,0
21.07.2018 13:00:00 25,5 17,2 9 5 19 11 Z 1007,7 39 0,0
21.07.2018 12:00:00 26,6 15,9 3 2 15 8 ZO 1007,9 46 0,0
21.07.2018 11:00:00 25,3 16,2 8 4 16 8 ONO 1008,6 34 0,0
21.07.2018 10:00:00 24,0 17,0 5 3 18 10 ZZO 1009,1 40 0,0
21.07.2018 09:00:00 25,0 17,5 8 4 21 11 OZO 1009,3 36 0,0
21.07.2018 08:00:00 23,7 17,9 5 3 11 6 OZO 1009,6 46 0,0
21.07.2018 07:00:00 22,3 17,0 6 3 24 13 OZO 1009,8 50 0,0
21.07.2018 06:00:00 22,9 17,4 8 4 17 9 ZO 1009,9 50 0,0
21.07.2018 05:00:00 21,7 17,5 7 4 20 11 ZO 1009,9 42 0,0
21.07.2018 04:00:00 20,3 17,7 6 4 14 8 OZO 1009,9 42 0,0
21.07.2018 03:00:00 19,2 14,0 4 2 15 8 O 1009,9 50 0,0
21.07.2018 02:00:00 17,6 14,5 5 3 14 8 NO 1010,1 50 0,0
21.07.2018 01:00:00 17,0 14,5 4 2 9 5 NO 1010,3 50 0,0
21.07.2018 00:00:00 18,2 14,3 4 2 9 5 NO 1010,7 48 0,0
20.07.2018 23:00:00 18,2 15,3 4 2 8 5 NO 1010,7 50 0,0
20.07.2018 22:00:00 20,1 15,3 3 2 8 4 NNO 1010,9 50 0,0
20.07.2018 21:00:00 22,1 15,4 4 2 8 5 NNO 1011,2 50 0,0
20.07.2018 20:00:00 23,8 15,6 5 3 10 5 NNO 1011,3 50 0,0
20.07.2018 19:00:00 25,4 14,8 4 2 14 7 N 1011,3 50 0,0
20.07.2018 18:00:00 27,8 13,7 4 2 13 7 W 1011,6 50 0,0
20.07.2018 17:00:00 28,5 13,2 7 4 19 10 ZZW 1012,0 48 0,0
20.07.2018 16:00:00 29,7 14,3 9 5 21 12 ZW 1012,5 50 0,0
20.07.2018 15:00:00 30,2 14,7 10 5 19 10 ZZW 1013,0 38 0,0
20.07.2018 14:00:00 29,2 14,6 9 5 19 10 ZZW 1013,5 38 0,0
20.07.2018 13:00:00 29,1 14,5 9 5 18 10 ZZO 1013,8 38 0,0
20.07.2018 12:00:00 27,8 15,1 10 5 18 10 ZW 1014,3 38 0,0
20.07.2018 11:00:00 27,7 15,0 7 4 16 9 ZZO 1014,7 36 0,0
20.07.2018 10:00:00 26,2 15,0 8 5 18 10 ZO 1014,9 35 0,0
20.07.2018 09:00:00 24,8 15,4 8 4 17 9 ZO 1015,0 42 0,0
20.07.2018 08:00:00 24,0 16,0 9 5 19 10 ZO 1015,2 50 0,0
20.07.2018 07:00:00 23,1 15,9 8 5 23 13 ZO 1015,4 50 0,0
20.07.2018 06:00:00 21,8 15,6 8 4 18 10 ZO 1015,3 50 0,0
20.07.2018 05:00:00 20,4 15,2 5 3 15 8 OZO 1015,4 50 0,0
20.07.2018 04:00:00 21,2 15,5 7 4 18 10 OZO 1015,5 50 0,0
20.07.2018 03:00:00 21,8 15,2 7 4 18 10 ZO 1015,6 50 0,0
20.07.2018 02:00:00 19,6 14,0 5 3 15 8 O 1015,7 50 0,0
20.07.2018 01:00:00 18,8 13,9 6 3 14 8 O 1015,6 50 0,0
20.07.2018 00:00:00 17,8 12,7 5 3 9 5 ONO 1015,7 50 0,0
19.07.2018 23:00:00 19,3 12,8 4 2 9 5 ONO 1015,4 50 0,0
19.07.2018 22:00:00 20,4 13,1 6 3 10 6 O 1015,3 50 0,0
19.07.2018 21:00:00 22,0 14,9 5 3 7 4 O 1015,0 50 0,0
19.07.2018 20:00:00 23,5 14,8 4 2 7 4 ZZO 1014,9 50 0,0
19.07.2018 19:00:00 27,7 12,5 2 1 8 4 ZZW 1014,9 50 0,0
19.07.2018 18:00:00 28,1 12,8 5 3 11 6 ZW 1015,1 50 0,0
19.07.2018 17:00:00 29,8 12,2 5 3 11 6 ZW 1015,3 42 0,0
19.07.2018 16:00:00 29,8 13,5 5 3 16 9 ZZW 1015,8 47 0,0
19.07.2018 15:00:00 29,9 13,6 6 4 17 9 Z 1016,4 47 0,0
19.07.2018 14:00:00 29,1 12,9 8 5 17 9 Z 1017,0 43 0,0
19.07.2018 13:00:00 28,3 14,5 7 4 18 10 ZZW 1017,3 35 0,0
19.07.2018 12:00:00 27,7 13,3 11 6 19 11 Z 1017,6 37 0,0
19.07.2018 11:00:00 26,7 13,4 9 5 21 12 ZO 1018,0 36 0,0
19.07.2018 10:00:00 25,1 14,6 11 6 26 14 ZO 1018,0 47 0,0
19.07.2018 09:00:00 23,8 15,0 12 6 25 14 ZZO 1017,9 38 0,0
19.07.2018 08:00:00 23,7 16,0 10 5 23 12 ZO 1018,0 48 0,0
19.07.2018 07:00:00 22,7 15,8 8 5 26 14 ZO 1017,9 50 0,0
19.07.2018 06:00:00 21,9 15,0 13 7 26 14 ZO 1017,9 50 0,0
19.07.2018 05:00:00 21,8 15,2 10 5 26 14 ZO 1017,7 50 0,0
19.07.2018 04:00:00 22,1 15,0 12 6 28 15 ZO 1017,8 50 0,0
19.07.2018 03:00:00 22,0 14,9 7 4 27 15 OZO 1017,9 50 0,0
19.07.2018 02:00:00 23,1 15,2 9 5 22 12 ZO 1017,8 50 0,0
19.07.2018 01:00:00 22,5 16,1 7 4 15 8 ZO 1017,6 50 0,0
19.07.2018 00:00:00 21,1 13,5 5 3 9 5 OZO 1017,4 47 0,0
18.07.2018 23:00:00 20,8 13,5 6 3 9 5 O 1017,0 50 0,0
18.07.2018 22:00:00 20,5 13,5 4 2 7 4 ONO 1017,0 50 0,0
18.07.2018 21:00:00 22,6 12,8 4 2 4 2 ONO 1016,9 50 0,0
18.07.2018 20:00:00 25,0 11,6 2 1 7 4 Z 1016,9 50 0,0
18.07.2018 19:00:00 27,4 10,6 5 3 13 7 ZZW 1017,1 50 0,0
18.07.2018 18:00:00 29,6 10,7 7 4 16 9 ZZW 1017,3 50 0,0
18.07.2018 17:00:00 31,2 11,1 5 3 21 11 ZZO 1017,6 49 0,0
18.07.2018 16:00:00 31,0 9,2 10 5 23 12 Z 1018,1 41 0,0
18.07.2018 15:00:00 31,6 9,8 10 5 24 13 ZZO 1018,5 43 0,0
18.07.2018 14:00:00 30,5 10,5 11 6 24 13 ZO 1018,9 42 0,0
18.07.2018 13:00:00 30,4 14,5 9 5 20 11 Z 1019,2 37 0,0
18.07.2018 12:00:00 29,6 15,0 10 5 19 10 Z 1019,6 39 0,0
18.07.2018 11:00:00 28,5 14,7 9 5 23 12 ZO 1019,9 42 0,0
18.07.2018 10:00:00 26,9 15,3 10 5 24 13 ZO 1020,2 37 0,0
18.07.2018 09:00:00 26,3 16,5 10 5 24 13 ZO 1020,2 42 0,0
18.07.2018 08:00:00 24,8 16,2 10 6 26 14 ZO 1020,0 40 0,0
18.07.2018 07:00:00 23,9 16,9 11 6 25 13 ZO 1019,8 50 0,0
18.07.2018 06:00:00 23,2 17,9 8 4 19 10 ZO 1019,6 50 0,0
18.07.2018 05:00:00 22,8 17,9 6 4 15 8 OZO 1019,5 50 0,0
18.07.2018 04:00:00 21,0 17,8 6 3 13 7 OZO 1019,5 47 0,0
18.07.2018 03:00:00 19,5 14,1 5 3 11 6 O 1019,4 50 0,0
18.07.2018 02:00:00 19,4 14,2 6 3 11 6 ONO 1019,1 50 0,0
18.07.2018 01:00:00 19,7 14,9 6 3 11 6 ONO 1019,0 49 0,0
18.07.2018 00:00:00 19,0 16,0 6 4 11 6 ONO 1018,7 50 0,0
17.07.2018 23:00:00 20,0 17,2 4 2 6 3 NO 1018,5 50 0,0
17.07.2018 22:00:00 21,6 17,4 3 2 4 2 NNO 1018,4 50 0,0
17.07.2018 21:00:00 24,2 16,5 3 2 5 3 NNW 1018,3 50 0,0
17.07.2018 20:00:00 26,6 15,0 2 1 6 3 ZZW 1018,3 50 0,0
17.07.2018 19:00:00 28,8 13,9 3 2 10 5 ZW 1018,4 47 0,0
17.07.2018 18:00:00 29,9 13,6 5 3 17 9 ZO 1018,6 50 0,0
17.07.2018 17:00:00 30,8 13,6 8 4 18 10 Z 1018,6 49 0,0
17.07.2018 16:00:00 31,0 13,7 7 4 23 12 ZZO 1018,9 36 0,0
17.07.2018 15:00:00 31,1 13,4 8 4 21 11 ZZO 1019,1 31 0,0
17.07.2018 14:00:00 30,4 12,8 7 4 17 9 Z 1019,3 26 0,0
17.07.2018 13:00:00 30,3 12,2 7 4 18 10 ZO 1019,5 43 0,0
17.07.2018 12:00:00 29,7 11,2 7 4 17 9 ZO 1019,6 19 0,0
17.07.2018 11:00:00 28,4 11,5 7 4 18 10 OZO 1019,7 15 0,0
17.07.2018 10:00:00 27,2 11,2 5 3 13 7 O 1019,9 12 0,0
17.07.2018 09:00:00 25,6 13,8 3 2 8 5 ZZO 1020,0 24 0,0
17.07.2018 08:00:00 24,1 14,2 4 2 11 6 O 1020,1 50 0,0
17.07.2018 07:00:00 21,7 15,3 5 3 10 5 OZO 1019,9 50 0,0
17.07.2018 06:00:00 17,6 16,8 4 2 8 4 ONO 1019,8 50 0,0
17.07.2018 05:00:00 14,8 14,8 2 1 5 3 NNO 1019,7 32 0,0
17.07.2018 04:00:00 13,1 13,1 3 2 5 3 NNO 1019,5 11 0,0
17.07.2018 03:00:00 12,6 12,6 4 2 5 3 NNW 1019,4 8 0,0
17.07.2018 02:00:00 12,7 12,5 4 2 5 3 NW 1019,2 17 0,0

tt = temperatuur
td = dauwpunt
ff = windsnelheid
fx = windstoten
dd = windrichting
ppp = luchtdruk
vv = zicht
rr = neerslag

Weerstations in de omgeving